Time,TemperatureF,DewpointF,PressureIn,WindDirection,WindDirectionDegrees,WindSpeedMPH,WindSpeedGustMPH,Humidity,HourlyPrecipIn,Conditions,Clouds,dailyrainin,SoftwareType,DateUTC
2013-08-03 00:02:00,58.0,57.0,30.10,East,89,0.0,0.0,95,0.00,,,0.39,,2013-08-03 07:02:00,
2013-08-03 00:22:00,58.0,57.0,30.09,East,89,0.0,0.0,95,0.00,,,0.39,,2013-08-03 07:22:00,
2013-08-03 00:32:00,58.0,57.0,30.10,East,89,0.0,0.0,95,0.00,,,0.39,,2013-08-03 07:32:00,
2013-08-03 00:43:00,58.0,57.0,30.10,East,89,0.0,0.0,95,0.00,,,0.39,,2013-08-03 07:43:00,
2013-08-03 00:52:00,58.0,57.0,30.10,East,89,0.0,0.0,95,0.00,,,0.39,,2013-08-03 07:52:00,
2013-08-03 01:02:00,58.0,57.0,30.10,East,89,0.0,0.0,95,0.00,,,0.39,,2013-08-03 08:02:00,
2013-08-03 01:11:00,58.0,57.0,30.10,East,89,0.0,0.0,95,0.00,,,0.39,,2013-08-03 08:11:00,
2013-08-03 01:22:00,58.0,57.0,30.10,East,89,0.0,0.0,95,0.00,,,0.39,,2013-08-03 08:22:00,
2013-08-03 01:43:00,58.0,57.0,30.09,East,89,0.0,0.0,95,0.00,,,0.39,,2013-08-03 08:43:00,
2013-08-03 01:52:00,58.0,57.0,30.09,East,89,0.0,0.0,95,0.00,,,0.39,,2013-08-03 08:52:00,
2013-08-03 02:02:00,58.0,57.0,30.09,East,89,0.0,0.0,95,0.00,,,0.39,,2013-08-03 09:02:00,
2013-08-03 02:11:00,58.0,57.0,30.09,East,89,0.0,0.0,95,0.00,,,0.39,,2013-08-03 09:11:00,
2013-08-03 02:22:00,58.0,57.0,30.09,East,89,0.0,0.0,95,0.00,,,0.39,,2013-08-03 09:22:00,
2013-08-03 02:43:00,58.0,57.0,30.09,East,89,0.0,0.0,95,0.00,,,0.39,,2013-08-03 09:43:00,
2013-08-03 02:53:00,58.0,57.0,30.09,East,89,0.0,0.0,95,0.00,,,0.39,,2013-08-03 09:53:00,
2013-08-03 03:02:00,58.0,57.0,30.08,East,89,0.0,0.0,95,0.00,,,0.39,,2013-08-03 10:02:00,
2013-08-03 03:22:00,58.0,57.0,30.08,East,89,0.0,0.0,95,0.00,,,0.39,,2013-08-03 10:22:00,
2013-08-03 03:32:00,58.0,57.0,30.08,East,89,0.0,0.0,95,0.00,,,0.39,,2013-08-03 10:32:00,
2013-08-03 03:42:00,58.0,57.0,30.08,East,89,0.0,0.0,95,0.00,,,0.39,,2013-08-03 10:42:00,
2013-08-03 03:52:00,58.0,57.0,30.08,East,89,0.0,0.0,95,0.00,,,0.39,,2013-08-03 10:52:00,
2013-08-03 04:02:00,58.0,57.0,30.08,East,89,0.0,0.0,96,0.00,,,0.39,,2013-08-03 11:02:00,
2013-08-03 04:22:00,58.0,57.0,30.08,East,89,0.0,0.0,96,0.01,,,0.40,,2013-08-03 11:22:00,
2013-08-03 04:43:00,58.0,57.0,30.08,East,89,0.0,0.0,95,0.01,,,0.40,,2013-08-03 11:43:00,
2013-08-03 04:53:00,58.0,57.0,30.08,East,89,0.0,0.0,95,0.01,,,0.40,,2013-08-03 11:53:00,
2013-08-03 05:02:00,58.0,57.0,30.08,East,89,0.0,0.0,95,0.01,,,0.40,,2013-08-03 12:02:00,
2013-08-03 05:11:00,58.0,57.0,30.08,East,89,0.0,0.0,95,0.00,,,0.40,,2013-08-03 12:11:00,
2013-08-03 05:22:00,58.0,57.0,30.08,East,89,0.0,0.0,95,0.00,,,0.40,,2013-08-03 12:22:00,
2013-08-03 05:32:00,58.0,57.0,30.08,East,89,0.0,0.0,95,0.00,,,0.40,,2013-08-03 12:32:00,
2013-08-03 05:43:00,58.0,57.0,30.09,East,89,0.0,0.0,95,0.00,,,0.40,,2013-08-03 12:43:00,
2013-08-03 05:52:00,58.0,57.0,30.09,East,89,0.0,0.0,95,0.00,,,0.40,,2013-08-03 12:52:00,
2013-08-03 06:01:00,58.0,57.0,30.09,East,89,0.0,0.0,96,0.00,,,0.40,,2013-08-03 13:01:00,
2013-08-03 06:11:00,58.0,57.0,30.09,East,89,0.0,0.0,96,0.00,,,0.40,,2013-08-03 13:11:00,
2013-08-03 06:22:00,58.0,57.0,30.09,East,89,0.0,0.0,96,0.00,,,0.40,,2013-08-03 13:22:00,
2013-08-03 06:32:00,58.0,57.0,30.09,East,89,0.0,0.0,96,0.00,,,0.40,,2013-08-03 13:32:00,
2013-08-03 06:43:00,58.0,57.0,30.09,East,89,0.0,0.0,96,0.00,,,0.40,,2013-08-03 13:43:00,
2013-08-03 06:52:00,58.0,57.0,30.09,East,89,0.0,0.0,96,0.00,,,0.40,,2013-08-03 13:52:00,
2013-08-03 07:02:00,58.0,57.0,30.09,East,89,0.0,0.0,96,0.00,,,0.40,,2013-08-03 14:02:00,
2013-08-03 07:11:00,58.0,57.0,30.09,East,89,0.0,0.0,96,0.00,,,0.40,,2013-08-03 14:11:00,
2013-08-03 07:22:00,58.0,57.0,30.10,East,89,0.0,0.0,96,0.00,,,0.40,,2013-08-03 14:22:00,
2013-08-03 07:42:00,59.0,58.0,30.10,East,89,0.0,0.0,96,0.01,,,0.35,,2013-08-03 14:42:00,
2013-08-03 07:52:00,59.0,58.0,30.10,East,89,0.0,0.0,96,0.01,,,0.35,,2013-08-03 14:52:00,
2013-08-03 08:02:00,59.0,58.0,30.10,East,89,0.0,0.0,96,0.01,,,0.35,,2013-08-03 15:02:00,
2013-08-03 08:22:00,59.0,58.0,30.10,NNW,340,1.0,3.0,96,0.01,,,0.35,,2013-08-03 15:22:00,
2013-08-03 08:32:00,59.0,58.0,30.10,WNW,291,1.0,4.0,95,0.00,,,0.27,,2013-08-03 15:32:00,
2013-08-03 08:43:00,59.0,58.0,30.10,WNW,290,0.0,2.0,95,0.00,,,0.27,,2013-08-03 15:43:00,
2013-08-03 08:53:00,59.0,58.0,30.10,WNW,290,0.0,2.0,95,0.00,,,0.27,,2013-08-03 15:53:00,
2013-08-03 09:02:00,59.0,58.0,30.10,WNW,291,0.0,3.0,96,0.00,,,0.27,,2013-08-03 16:02:00,
2013-08-03 09:11:00,59.0,58.0,30.10,WNW,291,0.0,3.0,96,0.00,,,0.27,,2013-08-03 16:11:00,
2013-08-03 09:22:00,59.0,58.0,30.10,WNW,295,1.0,5.0,95,0.00,,,0.27,,2013-08-03 16:22:00,
2013-08-03 09:33:00,59.0,58.0,30.10,WNW,296,0.0,4.0,95,0.00,,,0.25,,2013-08-03 16:33:00,
2013-08-03 09:53:00,59.0,58.0,30.10,WNW,292,2.0,6.0,95,0.00,,,0.25,,2013-08-03 16:53:00,
2013-08-03 10:02:00,60.0,59.0,30.10,WNW,293,1.0,6.0,95,0.00,,,0.25,,2013-08-03 17:02:00,
2013-08-03 10:11:00,60.0,59.0,30.10,WNW,293,1.0,6.0,95,0.00,,,0.25,,2013-08-03 17:11:00,
2013-08-03 10:22:00,61.0,59.0,30.10,WNW,286,3.0,6.0,94,0.00,,,0.25,,2013-08-03 17:22:00,
2013-08-03 10:32:00,61.0,59.0,30.10,WNW,286,2.0,4.0,93,0.00,,,0.23,,2013-08-03 17:32:00,
2013-08-03 10:43:00,62.0,60.0,30.10,WNW,287,2.0,5.0,92,0.00,,,0.23,,2013-08-03 17:43:00,
2013-08-03 10:52:00,62.0,60.0,30.10,WNW,287,2.0,5.0,92,0.00,,,0.23,,2013-08-03 17:52:00,
2013-08-03 11:02:00,64.0,61.0,30.09,WNW,284,2.0,6.0,89,0.00,,,0.23,,2013-08-03 18:02:00,
2013-08-03 11:11:00,64.0,61.0,30.09,WNW,284,2.0,6.0,89,0.00,,,0.23,,2013-08-03 18:11:00,
2013-08-03 11:21:00,63.0,59.0,30.09,WNW,294,1.0,5.0,87,0.00,,,0.23,,2013-08-03 18:21:00,
2013-08-03 11:32:00,63.0,59.0,30.09,WNW,294,1.0,5.0,87,0.00,,,0.23,,2013-08-03 18:32:00,
2013-08-03 11:42:00,63.0,59.0,30.09,WNW,292,2.0,4.0,88,0.00,,,0.20,,2013-08-03 18:42:00,
2013-08-03 11:53:00,64.0,60.0,30.09,WNW,293,2.0,6.0,88,0.00,,,0.20,,2013-08-03 18:53:00,
2013-08-03 12:02:00,64.0,60.0,30.09,WNW,297,3.0,5.0,87,0.00,,,0.20,,2013-08-03 19:02:00,
2013-08-03 12:11:00,64.0,60.0,30.09,WNW,297,3.0,5.0,87,0.00,,,0.20,,2013-08-03 19:11:00,
2013-08-03 12:22:00,66.0,62.0,30.09,WNW,295,2.0,6.0,88,0.00,,,0.20,,2013-08-03 19:22:00,
2013-08-03 12:32:00,68.0,62.0,30.09,WNW,295,1.0,6.0,81,0.00,,,0.14,,2013-08-03 19:32:00,
2013-08-03 12:52:00,68.0,62.0,30.09,WNW,298,1.0,7.0,82,0.00,,,0.14,,2013-08-03 19:52:00,
2013-08-03 13:02:00,69.0,60.0,30.09,WNW,294,2.0,7.0,74,0.00,,,0.14,,2013-08-03 20:02:00,
2013-08-03 13:12:00,69.0,60.0,30.09,WNW,294,2.0,7.0,74,0.00,,,0.14,,2013-08-03 20:12:00,
2013-08-03 13:21:00,71.0,63.0,30.09,WSW,244,0.0,6.0,76,0.00,,,0.14,,2013-08-03 20:21:00,
2013-08-03 13:42:00,72.0,62.0,30.09,SW,236,2.0,8.0,72,0.00,,,0.10,,2013-08-03 20:42:00,
2013-08-03 13:52:00,72.0,62.0,30.09,SW,236,2.0,8.0,72,0.00,,,0.10,,2013-08-03 20:52:00,
2013-08-03 14:01:00,73.0,63.0,30.09,NW,307,2.0,8.0,71,0.00,,,0.10,,2013-08-03 21:01:00,
2013-08-03 14:11:00,74.0,63.0,30.09,West,269,2.0,9.0,69,0.00,,,0.10,,2013-08-03 21:11:00,
2013-08-03 14:22:00,74.0,63.0,30.09,West,269,2.0,9.0,69,0.00,,,0.10,,2013-08-03 21:22:00,
2013-08-03 14:32:00,75.0,63.0,30.09,NW,308,4.0,9.0,67,0.00,,,0.06,,2013-08-03 21:32:00,
2013-08-03 14:52:00,75.0,60.0,30.08,WSW,253,3.0,8.0,60,0.00,,,0.06,,2013-08-03 21:52:00,
2013-08-03 15:02:00,76.0,64.0,30.07,NW,306,3.0,9.0,67,0.00,,,0.06,,2013-08-03 22:02:00,
2013-08-03 15:11:00,76.0,64.0,30.07,NW,306,3.0,9.0,67,0.00,,,0.06,,2013-08-03 22:11:00,
2013-08-03 15:22:00,76.0,62.0,30.07,WNW,294,2.0,9.0,61,0.00,,,0.06,,2013-08-03 22:22:00,
2013-08-03 15:32:00,75.0,61.0,30.07,NW,305,4.0,8.0,62,0.00,,,0.06,,2013-08-03 22:32:00,
2013-08-03 15:43:00,76.0,63.0,30.06,WNW,300,4.0,7.0,65,0.00,,,0.06,,2013-08-03 22:43:00,
2013-08-03 15:52:00,76.0,63.0,30.06,WNW,300,4.0,7.0,65,0.00,,,0.06,,2013-08-03 22:52:00,
2013-08-03 16:02:00,77.0,62.0,30.06,NW,309,4.0,10.0,60,0.00,,,0.06,,2013-08-03 23:02:00,
2013-08-03 16:11:00,77.0,62.0,30.06,NW,309,4.0,10.0,60,0.00,,,0.06,,2013-08-03 23:11:00,
2013-08-03 16:22:00,77.0,63.0,30.06,WNW,298,2.0,7.0,61,0.00,,,0.06,,2013-08-03 23:22:00,
2013-08-03 16:32:00,77.0,62.0,30.05,WSW,245,3.0,7.0,60,0.00,,,0.04,,2013-08-03 23:32:00,
2013-08-03 16:52:00,78.0,62.0,30.04,SSW,208,2.0,6.0,58,0.00,,,0.04,,2013-08-03 23:52:00,
2013-08-03 17:02:00,78.0,62.0,30.04,SW,236,3.0,7.0,57,0.00,,,0.04,,2013-08-04 00:02:00,
2013-08-03 17:11:00,78.0,62.0,30.04,SW,236,3.0,7.0,57,0.00,,,0.04,,2013-08-04 00:11:00,
2013-08-03 17:22:00,79.0,61.0,30.04,West,277,5.0,10.0,55,0.00,,,0.04,,2013-08-04 00:22:00,
2013-08-03 17:32:00,78.0,62.0,30.03,WNW,298,4.0,7.0,57,0.00,,,0.03,,2013-08-04 00:32:00,
2013-08-03 17:42:00,78.0,62.0,30.03,WNW,298,4.0,7.0,57,0.00,,,0.03,,2013-08-04 00:42:00,
2013-08-03 17:52:00,78.0,62.0,30.03,WNW,298,4.0,7.0,57,0.00,,,0.03,,2013-08-04 00:52:00,
2013-08-03 18:02:00,78.0,62.0,30.03,WNW,298,4.0,7.0,57,0.00,,,0.03,,2013-08-04 01:02:00,
2013-08-03 18:11:00,78.0,61.0,30.03,WSW,246,3.0,8.0,55,0.00,,,0.03,,2013-08-04 01:11:00,
2013-08-03 18:22:00,78.0,61.0,30.03,WSW,246,3.0,8.0,55,0.00,,,0.03,,2013-08-04 01:22:00,
2013-08-03 18:32:00,77.0,61.0,30.03,NW,310,5.0,9.0,57,0.00,,,0.03,,2013-08-04 01:32:00,
2013-08-03 18:42:00,77.0,61.0,30.03,NW,310,5.0,9.0,57,0.00,,,0.03,,2013-08-04 01:42:00,
2013-08-03 18:52:00,77.0,61.0,30.03,NW,310,5.0,9.0,57,0.00,,,0.03,,2013-08-04 01:52:00,
2013-08-03 19:02:00,77.0,61.0,30.03,NW,310,5.0,9.0,57,0.00,,,0.03,,2013-08-04 02:02:00,
2013-08-03 19:12:00,73.0,59.0,30.03,WNW,300,3.0,8.0,62,0.00,,,0.03,,2013-08-04 02:12:00,
2013-08-03 19:22:00,73.0,59.0,30.03,WNW,300,3.0,8.0,62,0.00,,,0.03,,2013-08-04 02:22:00,
2013-08-03 19:32:00,73.0,59.0,30.03,WNW,300,3.0,8.0,62,0.00,,,0.03,,2013-08-04 02:32:00,
2013-08-03 19:42:00,69.0,58.0,30.02,WNW,302,2.0,7.0,67,0.00,,,0.03,,2013-08-04 02:42:00,
2013-08-03 19:52:00,69.0,58.0,30.02,WNW,302,2.0,7.0,67,0.00,,,0.03,,2013-08-04 02:52:00,
2013-08-03 20:11:00,69.0,58.0,30.02,NW,307,2.0,7.0,69,0.00,,,0.03,,2013-08-04 03:11:00,
2013-08-03 20:21:00,69.0,58.0,30.02,NW,307,2.0,7.0,69,0.00,,,0.03,,2013-08-04 03:21:00,
2013-08-03 20:32:00,68.0,58.0,30.02,NW,304,2.0,6.0,70,0.00,,,0.03,,2013-08-04 03:32:00,
2013-08-03 20:42:00,68.0,58.0,30.02,NW,304,2.0,6.0,70,0.00,,,0.03,,2013-08-04 03:42:00,
2013-08-03 20:52:00,68.0,58.0,30.02,NW,304,2.0,6.0,70,0.00,,,0.03,,2013-08-04 03:52:00,
2013-08-03 21:02:00,68.0,58.0,30.02,NW,304,2.0,6.0,70,0.00,,,0.03,,2013-08-04 04:02:00,
2013-08-03 21:11:00,68.0,58.0,30.02,NW,304,2.0,6.0,70,0.00,,,0.03,,2013-08-04 04:11:00,
2013-08-03 21:32:00,64.0,57.0,30.03,NW,306,4.0,9.0,78,0.00,,,0.03,,2013-08-04 04:32:00,
2013-08-03 21:42:00,64.0,57.0,30.03,NW,306,4.0,9.0,78,0.00,,,0.03,,2013-08-04 04:42:00,
2013-08-03 21:52:00,64.0,57.0,30.03,NW,306,4.0,9.0,78,0.00,,,0.03,,2013-08-04 04:52:00,
2013-08-03 22:02:00,61.0,56.0,30.03,NW,308,2.0,6.0,83,0.00,,,0.02,,2013-08-04 05:02:00,
2013-08-03 22:11:00,61.0,56.0,30.03,NW,308,2.0,6.0,83,0.00,,,0.02,,2013-08-04 05:11:00,
2013-08-03 22:22:00,61.0,56.0,30.03,NW,308,2.0,6.0,83,0.00,,,0.02,,2013-08-04 05:22:00,
2013-08-03 22:32:00,61.0,56.0,30.03,NW,308,0.0,5.0,85,0.00,,,0.02,,2013-08-04 05:32:00,
2013-08-03 22:42:00,61.0,56.0,30.03,NW,308,0.0,5.0,85,0.00,,,0.02,,2013-08-04 05:42:00,
2013-08-03 22:52:00,60.0,56.0,30.04,NW,309,0.0,4.0,86,0.00,,,0.02,,2013-08-04 05:52:00,
2013-08-03 23:01:00,60.0,56.0,30.04,NW,309,0.0,4.0,86,0.00,,,0.02,,2013-08-04 06:01:00,
2013-08-03 23:12:00,59.0,55.0,30.04,NW,309,0.0,0.0,87,0.00,,,0.02,,2013-08-04 06:12:00,
2013-08-03 23:22:00,59.0,55.0,30.04,NW,309,0.0,0.0,87,0.00,,,0.02,,2013-08-04 06:22:00,
2013-08-03 23:32:00,58.0,55.0,30.04,NW,309,0.0,0.0,89,0.00,,,0.02,,2013-08-04 06:32:00,
2013-08-03 23:43:00,58.0,55.0,30.04,NW,309,0.0,0.0,90,0.00,,,0.02,,2013-08-04 06:43:00,
2013-08-03 23:52:00,58.0,55.0,30.04,NW,309,0.0,0.0,90,0.00,,,0.02,,2013-08-04 06:52:00,